Weather Roundup
Issued by NWS Corpus Christi, TX

Home | Current Version | Previous Version | Text Only | Print | Product List | Glossary On
Versions: 1 2 3 4 5 6 7 8 9 10 11 12 13 14 15 16 17 18 19 20 21 22 23 24 25 26 27 28 29 30 31 32 33 34 35 36 37 38 39 40 41 42 43 44 45 46 47 48 49 50
000
ASUS44 KCRP 020010
HRRCRP

SOUTH TEXAS REGIONAL WEATHER ROUNDUP
NATIONAL WEATHER SERVICE CORPUS CHRISTI TX
700 PM CDT WED APR 01 2015


TXZ229>244-020100-
...CORPUS CHRISTI AREA OBSERVATIONS...

CITY           SKY/WX    TMP DP  RH WIND       PRES   REMARKS
CORPUS CHRISTI MOCLDY    75  68  78 SE22      29.87R
NAS CORPUS CHR PTCLDY    73  70  90 SE18      29.87S
ROCKPORT       PTCLDY    73  69  87 SE15G23   29.88F
KINGSVILLE NAS MOCLDY    77  71  82 SE21G28   29.85R
ALICE          CLOUDY    78  68  71 SE21G29   29.83F
FALFURRIAS     MOSUNNY   80  68  67 SE15G21   29.83F
$$

...VICTORIA AREA OBSERVATIONS...

CITY           SKY/WX    TMP DP  RH WIND       PRES   REMARKS
VICTORIA       CLOUDY    74  68  81 S18G25    29.90R
BEEVILLE       MOCLDY    76  70  81 SE16G23   29.87R
PLEASANTON     PTSUNNY   75  68  77 SE7       29.85S
SAN ANTONIO    PTSUNNY   79  63  57 SE15      29.86R
$$

...LAREDO AREA OBSERVATIONS...

CITY           SKY/WX    TMP DP  RH WIND       PRES   REMARKS
LAREDO         MOSUNNY   84  65  52 S8        29.83S
COTULLA        SUNNY     82  65  56 S10       29.82S
DEL RIO        SUNNY     81  62  52 SE13G21   29.81R
MCALLEN        MOSUNNY   82  68  62 S16       29.85R
HEBBRONVILLE   SUNNY     80  66  61 SE14      29.85S
$$

...OTHER TEXAS OBSERVATIONS...

CITY           SKY/WX    TMP DP  RH WIND       PRES   REMARKS
BROWNSVILLE    CLEAR     77  68  73 SE18G25   29.87S
HOUSTON        CLOUDY    75  66  73 S13       29.91R
COL. STATION   CLOUDY    69  66  90 SE12      29.90R
AUSTIN         PTCLDY    78  63  59 S12       29.86R
WACO           CLOUDY    74  62  66 S15       29.84R
FORT WORTH     MOCLDY    76  63  64 S15G23    29.80F
WICHITA FALLS  SUNNY     80  62  54 S22G28    29.72S
LUBBOCK        PTSUNNY   83  29  14 W10       29.73S
EL PASO        MOSUNNY   82  32  16 W23G30    29.87S
$$

...MARINE OBSERVATIONS...

STATION/POSITION TIME  SKY/WX   TEMP    WIND        PRES    VSBY  WAVE   SWELL
                                AIR SEA DIR/SP/G                  HT/PER HT/PER
                 (UTC)          (F)     (DEG/KT/KT) (MB)    (MI)  (FT/S) (FT/S)
PORT ARANSAS     0000            69 71  120/ 13/ 14 1012.2F
BUOY 90 E PORT A 2350            72 70  140/ 12/ 14 1013.4S         4/ 6   2/ 6
BUOY 45 SE BAFFI 2350            72 70  140/ 16/ 17 1011.2R         4/ 6   2/13
BUOY 200 E PT IS 2350            74 73  140/ 14/ 17 1014.0F         4/ 7
BUOY 15 E GALVES 2350            70 70  150/ 10/ 12 1013.7R         3/ 6   2/ 6
$$



USA.gov is the U.S. government's official web portal to all federal, state and local government web resources and services.